ARIANE 44L DEB (SPELDA)

Satellite information

Favourite Embed

Satellite Type and Status

DEBRISIN ORBIT

Key statistics

Satellite ARIANE 44L DEB (SPELDA) at a glance.

Uptime

12926

Days in orbit

Revolutions

≈ 3.9

Per day

Orbit

MEO

Medium Earth Orbit

Inclination

5.2

Latest

Satellite identification and parameters

Extended collection of information and parameters for ARIANE 44L DEB (SPELDA).

Object identification

Identified? True

Debris? True

Object name: ARIANE 44L DEB (SPELDA)

International designator: 1990-063D

Object number (NORAD): 20718

Object ID (CCSDS): 20718

Country: FRANCE (FR)

Current information (Y/N): Y

RCS size: LARGE

Orbital parameters

Period: 373.143 minutes

Inclination: 5.2145 deg

SMA: 17168.944 km

Apoapsis: 21250.369 km

Periapsis: 331.248 km

RAAN: 320.7585 deg

Eccentricy: 0.609214

Argument of periapsis: 332.9912 deg

Mean anomaly: 5.2749 deg

Mean motion: 3.85911219 rev/day

Mean motion (dot): 0.00016917 rev/day2

B* drag term: 0.0078115509 1/REarth

Two-line elements (TLE)

Creation date: Dec. 12, 2025, 10:14 a.m.

Reference frame: TEME

Reference center: EARTH

Epoch: Dec. 12, 2025, 12:37 a.m. UTC

TLE line 0: 0 ARIANE 44L DEB (SPELDA)

TLE line 1: 1 20718U 90063D 25346.02637895 .00016917 00000-0 78116-2 0 9995

TLE line 2: 2 20718 5.2145 320.7585 6092140 332.9912 5.2749 3.85911219414744

Live tracking on map

Real-time ground track for satellite ARIANE 44L DEB (SPELDA).

In-orbit conjunctions

A list of the most updated potential collisions computed for object ARIANE 44L DEB (SPELDA).

Target Orbit TCA Probability of collision Miss distance Type
CZ-3C R/B MEO 2025-05-11 20:38:40 TBA 2000.0 (m) ROCKET BODY

Associated space launch

French and German direct broadcasting satellites

ARIANE 44L DEB (SPELDA) was lifted into orbit during the mission ‘Ariane 44L | TDF 2 & DFS-Kopernikus 2’, on board a Ariane 44L space rocket.

The launch took place on July 24, 1990, 10:25 p.m. from Ariane Launch Area 2.

For more information about the launch, click the button.

Launch to space Ariane 44L | TDF 2 & DFS-Kopernikus 2
Ariane 44L | TDF 2 & DFS-Kopernikus 2

Agency: N/A

Status: Launch Successful

Launch date: July 24, 1990, 10:25 p.m. UTC

Rocket: Ariane 44L

Launch pad: Ariane Launch Area 2

Location: Guiana Space Centre, French Guiana

...

Latest news about this satellite

There are no fresh news available about this satellite. Check back as we update our databases every day.


Newsletter sign-up

Weekly statistics, charts and insights to help you stay on top of the space industry.